7 * 24
多渠道服务支持
STARLINK-31516是美国于2024年3月11日发射的星链卫星,隶属于SpaceX星链互联网星座计划。星链项目旨在搭建全球卫星互联网,为偏远地区、地面网络覆盖不足区域提供低延迟宽带服务,该卫星入轨后进一步扩充星链星座规模,推进星座全球组网布局。
美国
(US)
| 数据来源 | 国际轨道数据 | AOE轨道数据 |
| 星历时间 | 2026-09-05T17:39:14+0800 11小时前 查看轨道信息 | 2026-09-03T09:00:00+0800 2天前 查看轨道信息 |
| 半长轴 | 6841.119km | 6840.847km |
| 偏心率 | 0.0001451 | 0.0001279 |
| 轨道倾角 | 53.160° | 53.161° |
| 近地点辐角 | 81.318° | 77.598° |
| 升交点赤经 | 36.386° | 47.422° |
| 平近点角 | 278.798° | 195.877° |
| 近地点 | 461.989km | 461.835km |
| 远地点 | 463.975km | 463.585km |
| 周期 | 93.853分钟 | 93.848分钟 |
| 每日圈数 | 15.343064 | 15.343979 |
| 事件ID | 空间交会对象 | 最接近时刻(TCA) | 交会距离 | 交会风险概率(CRP) | 交会风险指数(CRI) | 操作 |
|---|---|---|---|---|---|---|
| CDM_260907-230705-922106-637521 |
STARLINK-31516
(59221)
STARLINK-35826
(66375) | 2026-09-07T 23:07:24+0000 |
0.270 km
中距离 | 4.462502E-4 高风险 | 0.88 | |
| CDM_260907-112305-922106-637521 |
STARLINK-31516
(59221)
STARLINK-35826
(66375) | 2026-09-07T 11:23:57+0000 |
0.542 km
远距离 | 1.132816E-4 高风险 | 0.76 | |
| CDM_260907-054705-922106-538021 |
STARLINK-31516
(59221)
STARLINK-35051
(65380) | 2026-09-07T 05:47:13+0000 |
1.561 km
极远距离 | 4.853941E-6 低风险 | 0.49 | |
| CDM_260902-124505-922106-489122 |
STARLINK-31516
(59221)
OBJECT R
(64891) | 2026-09-02T 12:45:09+0000 |
1.846 km
极远距离 | 3.529701E-6 低风险 | 0.46 | |
| CDM_260907-151005-922106-538021 |
STARLINK-31516
(59221)
STARLINK-35051
(65380) | 2026-09-07T 15:10:20+0000 |
2.097 km
极远距离 | 2.145795E-6 低风险 | 0.42 | |
| CDM_260907-095005-922106-637521 |
STARLINK-31516
(59221)
STARLINK-35826
(66375) | 2026-09-07T 09:50:09+0000 |
2.225 km
极远距离 | 1.486442E-6 低风险 | 0.38 | |
| CDM_260902-133205-922106-489121 |
STARLINK-31516
(59221)
OBJECT R
(64891) | 2026-09-02T 13:32:04+0000 |
2.787 km
极远距离 | 1.467322E-6 低风险 | 0.38 | |
| CDM_260907-051605-922106-394321 |
STARLINK-31516
(59221)
STARLINK-33985
(63943) | 2026-09-07T 05:16:51+0000 |
2.961 km
极远距离 | 1.25948E-6 低风险 | 0.37 | |
| CDM_260830-053105-922106-190324 |
STARLINK-31516
(59221)
OBJECT K
(61903) | 2026-08-30T 05:31:05+0000 |
2.965 km
极远距离 | 1.222547E-6 低风险 | 0.37 | |
| CDM_260908-004105-922106-637521 |
STARLINK-31516
(59221)
STARLINK-35826
(66375) | 2026-09-08T 00:41:11+0000 |
2.628 km
极远距离 | 1.100534E-6 低风险 | 0.36 |